Location: Bijele Vode
(45.2833°N, 16.2000°E)
Time: 16:34:27
(UTC+00:00)

KORONAS-FOTON - Pass Details

Date: 18 September 2020
Orbit: 506 x 531 km, 82.4° (Epoch: 20 October)

Event Time Altitude Azimuth Distance (km) Brightness Sun altitude
Rises 19:21:02 0° 347° (NNW) 2,686 8.0 -24.5°
Reaches altitude 10° 19:23:13 10° 344° (NNW) 1,792 7.1 -24.8°
Enters shadow 19:26:45 56° 290° (WNW) 640 4.4 -25.4°
